Title: HESS J1632-478: an energetic relic Authors: M. Balbo, P. Saouter, R. Walter, L. Pavan, A. Tramacere, M. Pohl, J.-A. Zurita-Heras HESS J1632-478 is an extended and still unidentified TeV source in the galactic plane. In order to identify the source of the very high energy emission and to cons...
Title: A Spitzer View of Star Formation in the Cygnus X North Complex Authors: I. M. Beerer, X. P. Koenig, J. L. Hora, R. A. Gutermuth, S. Bontemps, S. T. Megeath, N. Schneider, F. Motte, S. Carey, R. Simon, E. Keto, H. A. Smith, L. E. Allen, G. G. Fazio, K. E. Kraemer, S. Price, D. Mizuno, J. D. Adams, J. Her...
The ashes of Vitaly Fedorov, a 44-year veteran of the Russian space industry, will be delivered into orbit and burst into open space. Fedorov was involved in virtually every major space launch in Russia during his career. He started as part of the lunar program, participating in the launch of the Bur...
http://e-learning.onu.edu.ua/stati/igor-v-limar-synchronicity-phenomena-by-c-g-jung-perspectives-of-study-and-possible-psychophysiological-substantiation.htmlDirections of researches, considering in any event the complex of phenomena specified in terminolo...
July 17th, 2010 The San Diego Space Society is proud to announce the Grand Opening of the Space Travellers Emporium. The San Diego Space Society was founded in 2008 with the purpose of raising awareness and educating the general public to the benefits of human exploration of space and San Diego's rol...
Orbital elements: 2010 NV1 Epoch 2010 July 23.0 TT = JDT 2455400.5 MPC M 0.29635 (2000.0) P Q n 0.00095544 Peri. 111.83266 +0.76136707 +0.48046608 a 102.0942624 Node 136.81554 +0.01082484 -0.68073001 e 0.9088595 Incl. 140.50166 +0.64823067 -0.55295479 P 1030 H 10.3 G 0.15 U 5 [url=http://www.m...
Orbital elements: 2010 NW1 Earth MOID = 0.3923 AU Epoch 2010 July 23.0 TT = JDT 2455400.5 MPC M 20.10713 (2000.0) P Q n 0.17022131 Peri. 131.73348 +0.08713936 +0.89636500 a 3.2244831 Node 136.62860 -0.99260767 +0.04112309 e 0.6046158 Incl. 39.26873 +0.08447922 -0.44140534 P 5.79 H 17.5 G 0.15 U 8 [...
The 430 - 960 metre wide asteroid 2000 HA24 will make a close pass (61.6 lunar distances, 0.1582 AU), travelling at 6.41 km/second, to the Earth-Moon system on the 3rd November, 2010 @ 08:30 UT. See more The Lunar Distance (LD),...
The 98 - 220 metre wide asteroid 2008 EL will make a close pass (12.6 lunar distances, 0.0325 AU), travelling at 17.77 km/second, to the Earth-Moon system on the 2nd November, 2010 @ 20:10 UT. See more The Lunar Distance (LD)...
New research suggests that the skies of the Canadian Arctic may be the best in the world for astronomy. Researchers from the Universities of British Columbia and Toronto and the Herzberg Institute of Astrophysics in Victoria are about to report initial results indicating that the best place in the...
Title: New measurement of orbital and spin period evolution of the Accretion Disk Corona source 4U 1822-37 Authors: Chetana Jain, Biswajit Paul, Anjan Dutta 4U 1822-37 is a Low Mass X-ray Binary (LMXB) system with an Accretion Disk Corona. We have obtained 16 new mid-eclipse time measurements of t...
Title: Portrait of Theobalda as a Young Asteroid Family Authors: Bojan Novakovic (Version v2) The (778) Theobalda asteroid family attracted little attention so far, but our study shows that it is important in several aspects. In this paper we investigate the origin and evolution of Theobalda fam...
A mysterious fire that occurred in Grahams Road Saturday morning has left residents puzzled. Louis and Clemmie Campbell were outside in their yard when they heard a loud swishing sound. The ball of fire landed in a hay field beside the Campbell's driveway. [url=http://www.journalpioneer.com/i...